This is the latest recevied weather packets stored in our database for station/object NI4CE-11. If no packets are shown the sender has not sent any weather packets the latest 10 day(s).
| Time | Temp. | Humidity | Pressure | Rain* | Wind** | Luminosity | Snow |
|---|---|---|---|---|---|---|---|
| 1778145096 | 20.56° C | 100% | 1015.2 hPa | 0 mm | - | - | - |
| 1778145033 | 20.56° C | 100% | 1015.2 hPa | 0 mm | - | - | - |
| 1778144979 | 20.56° C | 100% | 1015.2 hPa | 0 mm | - | - | - |
| 1778144678 | 21.11° C | 100% | 1015.4 hPa | 0 mm | - | - | - |
| 1778144456 | 20.56° C | 100% | 1015.4 hPa | 0 mm | - | - | - |
| 1778144378 | 21.11° C | 100% | 1015.4 hPa | 0 mm | - | - | - |
| 1778144128 | 20.56° C | 100% | 1015.4 hPa | 0 mm | - | - | - |
| 1778144079 | 20.56° C | 100% | 1015.4 hPa | 0 mm | - | - | - |
| 1778143779 | 20.56° C | 100% | 1015.4 hPa | 0 mm | - | - | - |
| 1778143656 | 21.11° C | 100% | 1015.3 hPa | 0 mm | - | - | - |
| 1778143479 | 21.11° C | 100% | 1015.3 hPa | 0 mm | - | - | - |
| 1778143314 | 21.11° C | 100% | 1015.1 hPa | 0 mm | - | - | - |
| 1778143179 | 21.11° C | 100% | 1015.1 hPa | 0 mm | - | - | - |
| 1778142879 | 22.22° C | 100% | 1015.1 hPa | 0 mm | - | - | - |
| 1778142579 | 22.22° C | 100% | 1015 hPa | 0 mm | - | - | - |
| 1778142279 | 21.11° C | 100% | 1014.9 hPa | 0 mm | - | - | - |
| 1778141979 | 22.22° C | 100% | 1014.9 hPa | 0 mm | - | - | - |
| 1778141679 | 22.22° C | 100% | 1014.8 hPa | 0 mm | - | - | - |
| 1778141379 | 21.11° C | 100% | 1014.8 hPa | 0 mm | - | - | - |
| 1778141079 | 22.22° C | 100% | 1014.8 hPa | 0 mm | - | - | - |
| 1778140807 | 22.22° C | 100% | 1015 hPa | 0 mm | - | - | - |
| 1778140779 | 21.11° C | 100% | 1014.9 hPa | 0 mm | - | - | - |
| 1778140511 | 20.56° C | 100% | 1014.7 hPa | 0 mm | - | - | - |
| 1778140479 | 20.56° C | 100% | 1014.7 hPa | 0 mm | - | - | - |
| 1778140407 | 22.22° C | 100% | 1015 hPa | 0 mm | - | - | - |
* Rain latest hour (hover to see other rain measurements)
** Current wind speed in m/s (hover to see current wind gust speed)